| time (UTC) | temp C | wind direction | speed KPH | gust KPH | rain 1hr cm | rain 24hr cm | rain mn cm | humidity % | barometer mb |
| 20260510033705 | 8 | 339 | 0.0 | 0.0 | 0.00 | 0.86 | 0.86 | 96 | 1009.2 |
| 20260510033203 | 8 | 338 | 0.0 | 0.0 | 0.00 | 0.86 | 0.86 | 96 | 1009.2 |
| 20260510032659 | 8 | 339 | 0.0 | 0.0 | 0.00 | 0.86 | 0.86 | 96 | 1009.1 |
| 20260510032154 | 8 | 338 | 0.0 | 0.0 | 0.00 | 0.86 | 0.86 | 96 | 1009.0 |
| 20260510031649 | 8 | 338 | 0.0 | 0.0 | 0.00 | 0.86 | 0.86 | 96 | 1009.1 |
| 20260510031147 | 8 | 339 | 0.0 | 0.0 | 0.00 | 0.86 | 0.86 | 96 | 1009.1 |
| 20260510030646 | 8 | 339 | 0.0 | 1.6 | 0.00 | 0.86 | 0.86 | 96 | 1009.1 |
| 20260510030144 | 9 | 339 | 0.0 | 0.0 | 0.00 | 0.86 | 0.86 | 96 | 1009.3 |
| 20260510025641 | 9 | 339 | 0.0 | 0.0 | 0.00 | 0.86 | 0.86 | 95 | 1009.1 |
| 20260510025138 | 9 | 339 | 0.0 | 0.0 | 0.00 | 0.86 | 0.86 | 95 | 1009.2 |
| 20260510024635 | 9 | 339 | 0.0 | 0.0 | 0.00 | 0.86 | 0.86 | 95 | 1009.0 |
| 20260510024132 | 9 | 339 | 0.0 | 0.0 | 0.00 | 0.86 | 0.86 | 95 | 1009.2 |
| 20260510023627 | 9 | 339 | 0.0 | 0.0 | 0.00 | 0.86 | 0.86 | 95 | 1008.8 |
| 20260510023125 | 9 | 339 | 0.0 | 0.0 | 0.00 | 0.86 | 0.86 | 95 | 1009.1 |
| 20260510022625 | 10 | 339 | 0.0 | 0.0 | 0.00 | 0.86 | 0.86 | 95 | 1009.1 |
| 20260510022120 | 10 | 339 | 0.0 | 0.0 | 0.00 | 0.86 | 0.86 | 95 | 1009.1 |
| 20260510021616 | 10 | 339 | 0.0 | 0.0 | 0.00 | 0.86 | 0.86 | 94 | 1008.9 |
| 20260510021114 | 10 | 339 | 0.0 | 0.0 | 0.00 | 0.86 | 0.86 | 94 | 1009.0 |
| 20260510020613 | 10 | 339 | 0.0 | 3.2 | 0.00 | 0.86 | 0.86 | 95 | 1009.1 |
| 20260510020109 | 10 | 338 | 0.0 | 0.0 | 0.00 | 0.86 | 0.86 | 94 | 1009.0 |
| 20260510015605 | 10 | 338 | 1.6 | 1.6 | 0.00 | 0.86 | 0.86 | 94 | 1009.1 |
| 20260510015102 | 10 | 338 | 0.0 | 0.0 | 0.00 | 0.86 | 0.86 | 94 | 1008.9 |
| 20260510014558 | 10 | 338 | 0.0 | 0.0 | 0.00 | 0.86 | 0.86 | 94 | 1009.0 |
| 20260510014055 | 10 | 338 | 0.0 | 0.0 | 0.00 | 0.86 | 0.86 | 93 | 1009.1 |
| 20260510013549 | 10 | 338 | 0.0 | 1.6 | 0.00 | 0.86 | 0.86 | 93 | 1008.9 |
| 20260510013046 | 10 | 338 | 0.0 | 3.2 | 0.00 | 0.86 | 0.86 | 93 | 1009.0 |
| 20260510012545 | 10 | 12 | 0.0 | 0.0 | 0.00 | 0.86 | 0.86 | 93 | 1008.9 |
| 20260510012042 | 10 | 13 | 0.0 | 0.0 | 0.00 | 0.86 | 0.86 | 93 | 1009.0 |
| 20260510011542 | 10 | 13 | 0.0 | 0.0 | 0.00 | 0.86 | 0.86 | 93 | 1008.7 |
| 20260510011037 | 10 | 13 | 1.6 | 1.6 | 0.00 | 0.86 | 0.86 | 92 | 1008.7 |
| 20260510010534 | 10 | 13 | 0.0 | 0.0 | 0.00 | 0.86 | 0.86 | 92 | 1008.4 |
| 20260510010032 | 11 | 13 | 0.0 | 0.0 | 0.00 | 0.86 | 0.86 | 92 | 1008.6 |
| 20260510005527 | 11 | 12 | 1.6 | 3.2 | 0.00 | 0.86 | 0.86 | 92 | 1008.5 |
| 20260510005025 | 10 | 114 | 0.0 | 0.0 | 0.00 | 0.86 | 0.86 | 92 | 1008.3 |
| 20260510004522 | 11 | 114 | 0.0 | 0.0 | 0.00 | 0.86 | 0.86 | 91 | 1008.4 |
| 20260510004021 | 11 | 114 | 0.0 | 0.0 | 0.00 | 0.86 | 0.86 | 91 | 1008.4 |
| 20260510003517 | 11 | 114 | 0.0 | 0.0 | 0.00 | 0.86 | 0.86 | 91 | 1008.3 |
| 20260510003012 | 11 | 114 | 0.0 | 1.6 | 0.00 | 0.86 | 0.86 | 90 | 1008.2 |
| 20260510002508 | 11 | 114 | 0.0 | 0.0 | 0.00 | 0.86 | 0.86 | 89 | 1008.5 |
| 20260510002005 | 11 | 114 | 0.0 | 0.0 | 0.00 | 0.86 | 0.86 | 88 | 1008.3 |
| 20260510001503 | 11 | 114 | 0.0 | 0.0 | 0.00 | 0.86 | 0.86 | 88 | 1008.4 |
| 20260510001000 | 12 | 114 | 0.0 | 0.0 | 0.00 | 0.86 | 0.86 | 86 | 1008.2 |
| 20260510000456 | 12 | 114 | 0.0 | 0.0 | 0.00 | 0.86 | 0.86 | 84 | 1008.3 |
| 20260509235952 | 12 | 114 | 0.0 | 0.0 | 0.00 | 0.86 | 0.86 | 83 | 1008.4 |
| 20260509235449 | 12 | 114 | 0.0 | 0.0 | 0.00 | 0.86 | 0.86 | 82 | 1008.2 |
| 20260509234945 | 13 | 114 | 0.0 | 0.0 | 0.00 | 0.86 | 0.86 | 81 | 1008.0 |
| 20260509234442 | 13 | 297 | 0.0 | 3.2 | 0.00 | 0.86 | 0.86 | 80 | 1007.9 |
| 20260509233940 | 13 | 280 | 0.0 | 0.0 | 0.00 | 0.86 | 0.86 | 82 | 1007.8 |
| 20260509233438 | 13 | 280 | 0.0 | 0.0 | 0.00 | 0.86 | 0.86 | 81 | 1007.9 |
| 20260509232933 | 13 | 280 | 0.0 | 0.0 | 0.00 | 0.86 | 0.86 | 80 | 1007.9 |
| 20260509232431 | 13 | 280 | 0.0 | 3.2 | 0.00 | 0.86 | 0.86 | 79 | 1007.8 |
| 20260509231927 | 13 | 98 | 0.0 | 4.8 | 0.00 | 0.86 | 0.86 | 79 | 1007.7 |
| 20260509231424 | 13 | 88 | 0.0 | 3.2 | 0.00 | 0.86 | 0.86 | 81 | 1007.6 |
| 20260509230922 | 13 | 274 | 0.0 | 0.0 | 0.00 | 0.86 | 0.86 | 81 | 1007.4 |
| 20260509230418 | 13 | 274 | 0.0 | 1.6 | 0.00 | 0.86 | 0.86 | 81 | 1007.7 |
| 20260509225914 | 13 | 274 | 1.6 | 3.2 | 0.00 | 0.86 | 0.86 | 81 | 1007.6 |
| 20260509225411 | 13 | 355 | 0.0 | 0.0 | 0.00 | 0.86 | 0.86 | 82 | 1007.5 |
| 20260509224907 | 13 | 355 | 0.0 | 0.0 | 0.00 | 0.86 | 0.86 | 82 | 1007.6 |
| 20260509224403 | 13 | 355 | 0.0 | 0.0 | 0.00 | 0.86 | 0.86 | 82 | 1007.4 |
| 20260509223900 | 14 | 355 | 0.0 | 1.6 | 0.00 | 0.86 | 0.86 | 82 | 1007.8 |
| 20260509223357 | 14 | 355 | 0.0 | 1.6 | 0.00 | 0.86 | 0.86 | 82 | 1007.8 |
| 20260509222854 | 14 | 355 | 0.0 | 1.6 | 0.00 | 0.86 | 0.86 | 82 | 1008.0 |
| 20260509222354 | 13 | 355 | 0.0 | 6.4 | 0.00 | 0.86 | 0.86 | 80 | 1007.9 |
| 20260509221850 | 13 | 329 | 0.0 | 1.6 | 0.00 | 0.86 | 0.86 | 83 | 1008.0 |
| 20260509221348 | 13 | 329 | 1.6 | 3.2 | 0.00 | 0.86 | 0.86 | 82 | 1008.0 |
| 20260509220843 | 13 | 122 | 1.6 | 1.6 | 0.00 | 0.86 | 0.86 | 83 | 1008.1 |
| 20260509220339 | 13 | 336 | 0.0 | 1.6 | 0.00 | 0.86 | 0.86 | 82 | 1008.1 |
| 20260509215834 | 13 | 347 | 0.0 | 1.6 | 0.00 | 0.86 | 0.86 | 83 | 1008.0 |
| 20260509215331 | 13 | 81 | 0.0 | 1.6 | 0.00 | 0.86 | 0.86 | 86 | 1007.9 |
| 20260509214829 | 13 | 81 | 0.0 | 0.0 | 0.00 | 0.86 | 0.86 | 86 | 1008.0 |
| 20260509214326 | 13 | 26 | 0.0 | 3.2 | 0.00 | 0.86 | 0.86 | 86 | 1008.1 |
| 20260509213823 | 13 | 28 | 1.6 | 1.6 | 0.00 | 0.86 | 0.86 | 87 | 1008.2 |
| 20260509213318 | 13 | 34 | 0.0 | 1.6 | 0.00 | 0.86 | 0.86 | 88 | 1008.2 |
| 20260509212816 | 13 | 34 | 0.0 | 1.6 | 0.00 | 0.86 | 0.86 | 88 | 1008.1 |
| 20260509212314 | 13 | 18 | 0.0 | 0.0 | 0.00 | 0.86 | 0.86 | 90 | 1008.3 |
| 20260509211809 | 13 | 18 | 0.0 | 1.6 | 0.00 | 0.86 | 0.86 | 89 | 1008.3 |
| 20260509211305 | 13 | 18 | 0.0 | 0.0 | 0.00 | 0.86 | 0.86 | 89 | 1008.4 |
| 20260509210802 | 12 | 18 | 0.0 | 3.2 | 0.00 | 0.86 | 0.86 | 90 | 1008.5 |
| 20260509210300 | 12 | 18 | 0.0 | 3.2 | 0.00 | 0.86 | 0.86 | 88 | 1008.5 |
| 20260509205759 | 13 | 282 | 0.0 | 1.6 | 0.00 | 0.86 | 0.86 | 87 | 1008.4 |
| 20260509205254 | 13 | 119 | 0.0 | 1.6 | 0.00 | 0.86 | 0.86 | 90 | 1008.6 |
| 20260509204750 | 13 | 4 | 0.0 | 4.8 | 0.00 | 0.86 | 0.86 | 90 | 1008.5 |
| 20260509204246 | 12 | 4 | 0.0 | 0.0 | 0.00 | 0.86 | 0.86 | 91 | 1008.7 |
| 20260509203742 | 12 | 70 | 0.0 | 0.0 | 0.00 | 0.86 | 0.86 | 91 | 1008.9 |
| 20260509203241 | 12 | 70 | 0.0 | 0.0 | 0.00 | 0.86 | 0.86 | 92 | 1008.6 |
| 20260509202736 | 12 | 70 | 0.0 | 1.6 | 0.00 | 0.86 | 0.86 | 91 | 1008.8 |
| 20260509202232 | 12 | 70 | 0.0 | 1.6 | 0.00 | 0.86 | 0.86 | 91 | 1008.5 |
| 20260509201727 | 12 | 70 | 0.0 | 0.0 | 0.00 | 0.86 | 0.86 | 92 | 1008.7 |
| 20260509201224 | 12 | 70 | 0.0 | 0.0 | 0.00 | 0.86 | 0.86 | 94 | 1008.6 |
| 20260509200720 | 12 | 70 | 0.0 | 0.0 | 0.00 | 0.86 | 0.86 | 94 | 1008.7 |
| 20260509200215 | 11 | 70 | 0.0 | 0.0 | 0.00 | 0.86 | 0.86 | 94 | 1008.7 |
| 20260509195711 | 11 | 70 | 0.0 | 0.0 | 0.00 | 0.86 | 0.86 | 94 | 1008.7 |
| 20260509195207 | 11 | 35 | 0.0 | 0.0 | 0.00 | 0.86 | 0.86 | 94 | 1008.9 |
| 20260509194707 | 11 | 33 | 0.0 | 0.0 | 0.00 | 0.86 | 0.86 | 94 | 1008.9 |
| 20260509194204 | 11 | 33 | 0.0 | 0.0 | 0.13 | 0.86 | 0.86 | 94 | 1008.7 |
| 20260509193700 | 11 | 33 | 0.0 | 0.0 | 0.13 | 0.86 | 0.86 | 94 | 1008.9 |
| 20260509193155 | 11 | 33 | 0.0 | 0.0 | 0.00 | 0.84 | 0.84 | 94 | 1009.1 |
| 20260509192652 | 11 | 32 | 0.0 | 1.6 | 0.00 | 0.84 | 0.84 | 94 | 1009.1 |
| 20260509192147 | 11 | 36 | 0.0 | 0.0 | 0.00 | 0.84 | 0.84 | 94 | 1009.2 |
| 20260509191647 | 11 | 37 | 0.0 | 0.0 | 0.00 | 0.84 | 0.84 | 94 | 1009.2 |
| 20260509191144 | 11 | 37 | 0.0 | 0.0 | 0.18 | 0.84 | 0.84 | 94 | 1009.1 |
| 20260509190640 | 11 | 37 | 0.0 | 0.0 | 0.13 | 0.81 | 0.81 | 94 | 1009.5 |
| 20260509190138 | 11 | 36 | 0.0 | 0.0 | 0.30 | 0.81 | 0.81 | 94 | 1009.5 |
| 20260509185636 | 11 | 350 | 0.0 | 0.0 | 0.30 | 0.79 | 0.79 | 94 | 1009.4 |
| 20260509185131 | 11 | 350 | 0.0 | 0.0 | 0.30 | 0.76 | 0.76 | 94 | 1009.7 |
| 20260509184630 | 11 | 117 | 0.0 | 0.0 | 0.48 | 0.74 | 0.74 | 94 | 1009.6 |
| 20260509184126 | 11 | 117 | 0.0 | 0.0 | 0.30 | 0.71 | 0.71 | 94 | 1009.6 |
| 20260509183622 | 11 | 117 | 0.0 | 0.0 | 0.13 | 0.66 | 0.66 | 94 | 1009.7 |
| 20260509183117 | 11 | 272 | 0.0 | 0.0 | 0.13 | 0.66 | 0.66 | 94 | 1009.7 |
| 20260509182614 | 10 | 271 | 0.0 | 0.0 | 0.00 | 0.64 | 0.64 | 94 | 1009.6 |
| 20260509182111 | 10 | 271 | 0.0 | 0.0 | 0.18 | 0.64 | 0.64 | 93 | 1009.5 |
| 20260509181609 | 10 | 271 | 0.0 | 0.0 | 0.18 | 0.61 | 0.61 | 93 | 1009.5 |
| 20260509181106 | 11 | 9 | 0.0 | 0.0 | 0.30 | 0.61 | 0.61 | 93 | 1009.4 |
| 20260509180602 | 11 | 9 | 0.0 | 0.0 | 0.30 | 0.58 | 0.58 | 93 | 1009.5 |
| 20260509180059 | 11 | 9 | 0.0 | 0.0 | 0.30 | 0.56 | 0.56 | 93 | 1009.6 |
| 20260509175554 | 11 | 9 | 0.0 | 0.0 | 0.30 | 0.53 | 0.53 | 93 | 1009.9 |
| 20260509175052 | 11 | 9 | 0.0 | 0.0 | 0.30 | 0.51 | 0.51 | 92 | 1009.7 |
| 20260509174548 | 11 | 9 | 0.0 | 0.0 | 0.13 | 0.48 | 0.48 | 91 | 1009.6 |
| 20260509174044 | 11 | 52 | 0.0 | 0.0 | 0.18 | 0.46 | 0.46 | 91 | 1009.8 |
| 20260509173544 | 11 | 84 | 0.0 | 0.0 | 0.30 | 0.46 | 0.46 | 92 | 1009.6 |
| 20260509173040 | 11 | 84 | 0.0 | 0.0 | 0.13 | 0.43 | 0.43 | 91 | 1009.6 |
| 20260509172538 | 11 | 73 | 0.0 | 0.0 | 0.18 | 0.41 | 0.41 | 91 | 1009.5 |
| 20260509172033 | 11 | 265 | 0.0 | 0.0 | 0.30 | 0.41 | 0.41 | 92 | 1009.9 |
| 20260509171529 | 11 | 265 | 0.0 | 0.0 | 0.13 | 0.38 | 0.38 | 92 | 1009.8 |
| 20260509171026 | 11 | 265 | 0.0 | 0.0 | 0.18 | 0.36 | 0.36 | 91 | 1009.6 |
| 20260509170521 | 11 | 143 | 0.0 | 0.0 | 0.18 | 0.36 | 0.36 | 92 | 1009.8 |
| 20260509170018 | 11 | 143 | 0.0 | 0.0 | 0.13 | 0.33 | 0.33 | 92 | 1009.7 |
| 20260509165516 | 11 | 143 | 0.0 | 0.0 | 0.00 | 0.30 | 0.30 | 91 | 1009.9 |
| 20260509165012 | 11 | 143 | 0.0 | 0.0 | 0.18 | 0.30 | 0.30 | 91 | 1009.9 |
| 20260509164508 | 11 | 139 | 0.0 | 0.0 | 0.18 | 0.30 | 0.30 | 91 | 1009.7 |
| 20260509164004 | 11 | 139 | 0.0 | 0.0 | 0.00 | 0.28 | 0.28 | 90 | 1009.7 |
| 20260509163502 | 11 | 139 | 0.0 | 0.0 | 0.18 | 0.28 | 0.28 | 90 | 1009.9 |
| 20260509163001 | 11 | 129 | 0.0 | 0.0 | 0.18 | 0.28 | 0.28 | 90 | 1009.7 |
| 20260509162500 | 11 | 333 | 0.0 | 0.0 | 0.00 | 0.25 | 0.25 | 89 | 1009.8 |
| 20260509161955 | 11 | 147 | 0.0 | 0.0 | 0.13 | 0.25 | 0.25 | 90 | 1009.9 |
| 20260509161451 | 11 | 146 | 0.0 | 0.0 | 0.13 | 0.25 | 0.25 | 89 | 1009.9 |
| 20260509160947 | 11 | 147 | 0.0 | 0.0 | 0.00 | 0.23 | 0.23 | 89 | 1009.9 |
| 20260509160443 | 11 | 118 | 0.0 | 0.0 | 0.00 | 0.23 | 0.23 | 91 | 1009.9 |
| 20260509155938 | 11 | 146 | 0.0 | 0.0 | 0.00 | 0.23 | 0.23 | 90 | 1010.0 |
| 20260509155435 | 11 | 135 | 0.0 | 0.0 | 0.00 | 0.23 | 0.23 | 91 | 1009.8 |
| 20260509154932 | 11 | 132 | 0.0 | 0.0 | 0.00 | 0.23 | 0.23 | 90 | 1009.7 |
| 20260509154428 | 11 | 264 | 0.0 | 0.0 | 0.18 | 0.23 | 0.23 | 90 | 1009.7 |
| 20260509153925 | 11 | 121 | 0.0 | 0.0 | 0.18 | 0.23 | 0.23 | 90 | 1009.8 |
| 20260509153422 | 11 | 121 | 0.0 | 0.0 | 0.00 | 0.20 | 0.20 | 91 | 1010.0 |
| 20260509152919 | 11 | 121 | 0.0 | 1.6 | 0.00 | 0.20 | 0.20 | 92 | 1010.0 |
| 20260509152415 | 11 | 114 | 0.0 | 0.0 | 0.00 | 0.20 | 0.20 | 92 | 1010.1 |
| 20260509151912 | 10 | 113 | 0.0 | 3.2 | 0.00 | 0.20 | 0.20 | 92 | 1009.9 |
| 20260509151408 | 10 | 102 | 0.0 | 0.0 | 0.00 | 0.20 | 0.20 | 92 | 1010.1 |
| 20260509150907 | 10 | 103 | 0.0 | 0.0 | 0.00 | 0.20 | 0.20 | 92 | 1009.9 |
| 20260509150404 | 10 | 103 | 0.0 | 0.0 | 0.00 | 0.20 | 0.20 | 92 | 1009.8 |
| 20260509145902 | 10 | 103 | 0.0 | 3.2 | 0.00 | 0.20 | 0.20 | 92 | 1009.8 |
| 20260509145401 | 10 | 77 | 0.0 | 1.6 | 0.13 | 0.20 | 0.20 | 92 | 1009.9 |
| 20260509144858 | 10 | 118 | 0.0 | 0.0 | 0.13 | 0.20 | 0.20 | 92 | 1009.9 |
| 20260509144355 | 10 | 102 | 0.0 | 0.0 | 0.00 | 0.18 | 0.18 | 92 | 1009.7 |
| 20260509143851 | 10 | 102 | 0.0 | 1.6 | 0.00 | 0.18 | 0.18 | 91 | 1009.9 |
| 20260509143349 | 10 | 102 | 0.0 | 1.6 | 0.18 | 0.18 | 0.18 | 90 | 1009.8 |
| 20260509142845 | 10 | 81 | 0.0 | 0.0 | 0.18 | 0.18 | 0.18 | 91 | 1009.8 |
| 20260509142341 | 10 | 329 | 0.0 | 0.0 | 0.00 | 0.15 | 0.15 | 92 | 1009.9 |
| 20260509141837 | 10 | 330 | 0.0 | 0.0 | 0.13 | 0.15 | 0.15 | 92 | 1010.1 |
| 20260509141334 | 10 | 329 | 0.0 | 0.0 | 0.13 | 0.15 | 0.15 | 92 | 1010.3 |
| 20260509140831 | 10 | 330 | 0.0 | 0.0 | 0.00 | 0.13 | 0.13 | 92 | 1010.5 |
| 20260509140328 | 10 | 330 | 0.0 | 0.0 | 0.00 | 0.13 | 0.13 | 92 | 1010.4 |
| 20260509135826 | 10 | 330 | 0.0 | 0.0 | 0.18 | 0.13 | 0.13 | 92 | 1010.1 |
| 20260509135323 | 10 | 330 | 0.0 | 0.0 | 0.00 | 0.10 | 0.10 | 91 | 1010.0 |
| 20260509134820 | 10 | 330 | 0.0 | 0.0 | 0.13 | 0.10 | 0.10 | 91 | 1010.1 |
| 20260509134317 | 10 | 330 | 0.0 | 1.6 | 0.13 | 0.10 | 0.10 | 90 | 1009.8 |
| 20260509133814 | 10 | 330 | 0.0 | 0.0 | 0.00 | 0.08 | 0.08 | 89 | 1010.0 |
| 20260509133311 | 10 | 330 | 0.0 | 0.0 | 0.00 | 0.08 | 0.08 | 88 | 1009.9 |
| 20260509132810 | 10 | 330 | 0.0 | 1.6 | 0.00 | 0.08 | 0.08 | 88 | 1010.0 |
| 20260509132308 | 10 | 3 | 0.0 | 0.0 | 0.00 | 0.08 | 0.08 | 88 | 1009.8 |
| 20260509131804 | 10 | 2 | 0.0 | 1.6 | 0.18 | 0.08 | 0.08 | 88 | 1009.6 |
| 20260509131301 | 10 | 3 | 0.0 | 0.0 | 0.18 | 0.08 | 0.08 | 86 | 1009.9 |
| 20260509130757 | 10 | 349 | 1.6 | 1.6 | 0.00 | 0.05 | 0.05 | 87 | 1009.7 |
| 20260509130253 | 10 | 282 | 3.2 | 3.2 | 0.00 | 0.05 | 0.05 | 89 | 1009.8 |
| 20260509125749 | 10 | 275 | 0.0 | 1.6 | 0.00 | 0.05 | 0.05 | 89 | 1009.9 |
| 20260509125247 | 10 | 274 | 0.0 | 3.2 | 0.00 | 0.05 | 0.05 | 89 | 1009.7 |
| 20260509124743 | 10 | 9 | 0.0 | 1.6 | 0.00 | 0.05 | 0.05 | 91 | 1009.5 |
| 20260509124239 | 10 | 13 | 4.8 | 4.8 | 0.00 | 0.05 | 0.05 | 92 | 1009.5 |
| 20260509123738 | 10 | 86 | 0.0 | 3.2 | 0.00 | 0.05 | 0.05 | 94 | 1009.5 |
| 20260509123235 | 10 | 65 | 0.0 | 0.0 | 0.00 | 0.05 | 0.05 | 95 | 1009.9 |
| 20260509122730 | 9 | 64 | 0.0 | 0.0 | 0.00 | 0.05 | 0.05 | 95 | 1009.4 |
| 20260509122227 | 9 | 65 | 0.0 | 0.0 | 0.00 | 0.05 | 0.05 | 95 | 1009.4 |
| 20260509121724 | 9 | 63 | 0.0 | 0.0 | 0.00 | 0.05 | 0.05 | 95 | 1009.7 |
| 20260509121222 | 9 | 76 | 0.0 | 0.0 | 0.00 | 0.05 | 0.05 | 95 | 1009.8 |
| 20260509120720 | 8 | 76 | 0.0 | 0.0 | 0.00 | 0.05 | 0.05 | 95 | 1009.5 |
| 20260509120217 | 8 | 76 | 0.0 | 0.0 | 0.00 | 0.05 | 0.05 | 95 | 1009.7 |
| 20260509115715 | 8 | 76 | 0.0 | 0.0 | 0.00 | 0.05 | 0.05 | 95 | 1009.6 |
| 20260509115212 | 8 | 76 | 0.0 | 0.0 | 0.00 | 0.05 | 0.05 | 95 | 1009.7 |
| 20260509114710 | 8 | 76 | 0.0 | 0.0 | 0.00 | 0.05 | 0.05 | 96 | 1009.7 |
| 20260509114209 | 8 | 76 | 0.0 | 0.0 | 0.00 | 0.05 | 0.05 | 96 | 1009.6 |
| 20260509113707 | 8 | 76 | 0.0 | 0.0 | 0.00 | 0.05 | 0.05 | 96 | 1009.9 |
| 20260509113204 | 8 | 76 | 0.0 | 0.0 | 0.00 | 0.05 | 0.05 | 96 | 1009.8 |
| 20260509112700 | 8 | 77 | 0.0 | 0.0 | 0.13 | 0.05 | 0.05 | 95 | 1009.8 |
| 20260509112157 | 8 | 76 | 0.0 | 0.0 | 0.13 | 0.05 | 0.05 | 96 | 1009.8 |
| 20260509111655 | 8 | 77 | 0.0 | 0.0 | 0.00 | 0.03 | 0.03 | 95 | 1009.9 |
| 20260509111151 | 8 | 60 | 0.0 | 0.0 | 0.00 | 0.03 | 0.03 | 95 | 1009.8 |
| 20260509110648 | 8 | 60 | 0.0 | 0.0 | 0.00 | 0.03 | 0.03 | 95 | 1010.0 |
| 20260509110145 | 8 | 60 | 0.0 | 0.0 | 0.00 | 0.03 | 0.03 | 95 | 1009.9 |
| 20260509105643 | 8 | 60 | 0.0 | 0.0 | 0.00 | 0.03 | 0.03 | 95 | 1010.0 |
| 20260509105141 | 8 | 60 | 0.0 | 0.0 | 0.00 | 0.03 | 0.03 | 95 | 1009.6 |
| 20260509104638 | 8 | 60 | 0.0 | 0.0 | 0.00 | 0.03 | 0.03 | 95 | 1009.6 |
| 20260509104134 | 8 | 60 | 0.0 | 0.0 | 0.00 | 0.03 | 0.03 | 95 | 1010.0 |
| 20260509103632 | 8 | 60 | 0.0 | 0.0 | 0.00 | 0.03 | 0.03 | 95 | 1009.7 |
| 20260509103130 | 8 | 60 | 0.0 | 0.0 | 0.18 | 0.03 | 0.03 | 95 | 1009.7 |
| 20260509102627 | 8 | 60 | 0.0 | 0.0 | 0.00 | 0.00 | 0.00 | 95 | 1009.8 |
| 20260509102124 | 8 | 60 | 0.0 | 0.0 | 0.00 | 0.00 | 0.00 | 95 | 1009.6 |
| 20260509101620 | 8 | 60 | 0.0 | 0.0 | 0.00 | 0.00 | 0.00 | 95 | 1009.6 |
| 20260509101117 | 8 | 60 | 0.0 | 0.0 | 0.00 | 0.00 | 0.00 | 95 | 1009.5 |
| 20260509100614 | 8 | 60 | 0.0 | 0.0 | 0.00 | 0.00 | 0.00 | 95 | 1009.6 |
| 20260509100112 | 8 | 67 | 0.0 | 0.0 | 0.00 | 0.00 | 0.00 | 95 | 1009.5 |
| 20260509095608 | 8 | 13 | 0.0 | 1.6 | 0.00 | 0.00 | 0.00 | 95 | 1009.1 |
| 20260509095106 | 8 | 13 | 1.6 | 1.6 | 0.00 | 0.00 | 0.00 | 95 | 1009.4 |
| 20260509094602 | 8 | 358 | 0.0 | 0.0 | 0.00 | 0.00 | 0.00 | 95 | 1009.6 |
| 20260509094059 | 8 | 358 | 0.0 | 0.0 | 0.00 | 0.00 | 0.00 | 95 | 1009.5 |
| 20260509093557 | 8 | 358 | 0.0 | 0.0 | 0.00 | 0.00 | 0.00 | 95 | 1009.6 |
| 20260509093054 | 8 | 358 | 0.0 | 0.0 | 0.00 | 0.00 | 0.00 | 95 | 1009.8 |
| 20260509092552 | 8 | 358 | 0.0 | 0.0 | 0.00 | 0.00 | 0.00 | 95 | 1009.7 |
| 20260509092051 | 8 | 358 | 0.0 | 0.0 | 0.00 | 0.00 | 0.00 | 95 | 1009.7 |
| 20260509091548 | 8 | 358 | 0.0 | 0.0 | 0.00 | 0.00 | 0.00 | 95 | 1009.7 |
| 20260509091044 | 8 | 358 | 0.0 | 0.0 | 0.00 | 0.00 | 0.00 | 95 | 1009.7 |
| 20260509090542 | 8 | 358 | 0.0 | 0.0 | 0.00 | 0.00 | 0.00 | 95 | 1009.8 |
| 20260509090040 | 8 | 358 | 0.0 | 0.0 | 0.00 | 0.00 | 0.00 | 95 | 1010.1 |
| 20260509085536 | 8 | 358 | 0.0 | 0.0 | 0.00 | 0.00 | 0.00 | 95 | 1010.0 |
| 20260509085032 | 8 | 358 | 0.0 | 0.0 | 0.00 | 0.00 | 0.00 | 95 | 1010.3 |
| 20260509084530 | 8 | 358 | 0.0 | 0.0 | 0.00 | 0.00 | 0.00 | 95 | 1010.0 |
| 20260509084027 | 8 | 358 | 0.0 | 0.0 | 0.00 | 0.00 | 0.00 | 95 | 1010.1 |
| 20260509083524 | 8 | 358 | 0.0 | 0.0 | 0.00 | 0.00 | 0.00 | 95 | 1010.5 |
| 20260509083020 | 8 | 358 | 0.0 | 0.0 | 0.00 | 0.00 | 0.00 | 95 | 1010.4 |
| 20260509082518 | 8 | 358 | 0.0 | 0.0 | 0.00 | 0.00 | 0.00 | 95 | 1010.5 |
| 20260509082015 | 8 | 358 | 0.0 | 0.0 | 0.00 | 0.00 | 0.00 | 95 | 1010.6 |
| 20260509081512 | 8 | 358 | 0.0 | 0.0 | 0.00 | 0.00 | 0.00 | 95 | 1010.8 |
| 20260509081009 | 8 | 358 | 0.0 | 0.0 | 0.00 | 0.00 | 0.00 | 95 | 1010.7 |
| 20260509080507 | 8 | 358 | 0.0 | 0.0 | 0.00 | 0.00 | 0.00 | 95 | 1010.9 |
| 20260509080005 | 8 | 358 | 0.0 | 0.0 | 0.00 | 0.00 | 0.00 | 95 | 1010.8 |
| 20260509075502 | 8 | 357 | 0.0 | 0.0 | 0.00 | 0.00 | 0.00 | 95 | 1010.7 |
| 20260509074959 | 8 | 358 | 0.0 | 0.0 | 0.00 | 0.00 | 0.00 | 95 | 1010.7 |
| 20260509074457 | 8 | 358 | 0.0 | 0.0 | 0.00 | 0.00 | 0.00 | 95 | 1010.5 |
| 20260509073953 | 8 | 358 | 0.0 | 0.0 | 0.00 | 0.00 | 0.00 | 95 | 1010.5 |
| 20260509073449 | 8 | 358 | 0.0 | 0.0 | 0.00 | 0.00 | 0.00 | 95 | 1010.9 |
| 20260509072946 | 8 | 358 | 0.0 | 0.0 | 0.00 | 0.00 | 0.00 | 95 | 1010.9 |
| 20260509072443 | 8 | 358 | 0.0 | 0.0 | 0.00 | 0.00 | 0.00 | 95 | 1011.2 |
| 20260509071940 | 8 | 358 | 0.0 | 0.0 | 0.00 | 0.00 | 0.00 | 95 | 1011.1 |
| 20260509071436 | 8 | 358 | 0.0 | 0.0 | 0.00 | 0.00 | 0.00 | 95 | 1010.8 |
| 20260509070934 | 8 | 358 | 0.0 | 0.0 | 0.00 | 0.00 | 0.00 | 95 | 1011.1 |
| 20260509070431 | 8 | 358 | 0.0 | 0.0 | 0.00 | 0.00 | 0.00 | 95 | 1010.9 |
| 20260509065926 | 8 | 358 | 0.0 | 0.0 | 0.00 | 0.00 | 0.00 | 95 | 1010.5 |
| 20260509065422 | 8 | 358 | 0.0 | 0.0 | 0.00 | 0.00 | 0.00 | 95 | 1010.4 |
| 20260509064919 | 8 | 358 | 0.0 | 0.0 | 0.00 | 0.00 | 0.00 | 95 | 1010.3 |
| 20260509064416 | 8 | 358 | 0.0 | 0.0 | 0.00 | 0.00 | 0.00 | 95 | 1010.5 |
| 20260509063914 | 8 | 358 | 0.0 | 0.0 | 0.00 | 0.00 | 0.00 | 94 | 1010.6 |
| 20260509063410 | 8 | 358 | 0.0 | 0.0 | 0.00 | 0.00 | 0.00 | 94 | 1010.5 |
| 20260509062907 | 8 | 358 | 0.0 | 0.0 | 0.00 | 0.00 | 0.00 | 94 | 1010.8 |
| 20260509062404 | 8 | 358 | 0.0 | 0.0 | 0.00 | 0.00 | 0.00 | 94 | 1010.8 |
| 20260509061901 | 8 | 358 | 0.0 | 0.0 | 0.00 | 0.00 | 0.00 | 94 | 1010.9 |
| 20260509061359 | 8 | 358 | 0.0 | 0.0 | 0.00 | 0.00 | 0.00 | 94 | 1010.8 |
| 20260509060856 | 8 | 358 | 0.0 | 0.0 | 0.00 | 0.00 | 0.00 | 94 | 1011.1 |
| 20260509060353 | 8 | 358 | 0.0 | 0.0 | 0.00 | 0.00 | 0.00 | 94 | 1011.1 |
| 20260509055848 | 8 | 358 | 0.0 | 0.0 | 0.00 | 0.00 | 0.00 | 94 | 1011.5 |
| 20260509055344 | 8 | 358 | 0.0 | 0.0 | 0.00 | 0.00 | 0.00 | 94 | 1011.3 |
| 20260509054841 | 8 | 358 | 0.0 | 0.0 | 0.00 | 0.00 | 0.00 | 94 | 1011.4 |
| 20260509054338 | 8 | 358 | 0.0 | 0.0 | 0.00 | 0.00 | 0.00 | 94 | 1011.7 |
| 20260509053836 | 8 | 358 | 0.0 | 1.6 | 0.00 | 0.00 | 0.00 | 94 | 1011.6 |
| 20260509053333 | 8 | 358 | 1.6 | 1.6 | 0.00 | 0.00 | 0.00 | 94 | 1011.6 |
| 20260509052831 | 8 | 358 | 1.6 | 3.2 | 0.00 | 0.00 | 0.00 | 94 | 1011.6 |
| 20260509052328 | 8 | 357 | 0.0 | 0.0 | 0.00 | 0.00 | 0.00 | 94 | 1011.4 |
| 20260509051826 | 8 | 357 | 0.0 | 0.0 | 0.00 | 0.00 | 0.00 | 94 | 1011.5 |
| 20260509051324 | 8 | 357 | 0.0 | 1.6 | 0.00 | 0.00 | 0.00 | 94 | 1011.2 |
| 20260509050820 | 8 | 357 | 0.0 | 0.0 | 0.00 | 0.00 | 0.00 | 94 | 1011.3 |
| 20260509050317 | 8 | 357 | 0.0 | 1.6 | 0.00 | 0.00 | 0.00 | 94 | 1011.3 |
| 20260509045814 | 8 | 357 | 1.6 | 1.6 | 0.00 | 0.00 | 0.00 | 94 | 1011.4 |
| 20260509045311 | 8 | 357 | 0.0 | 0.0 | 0.00 | 0.00 | 0.00 | 94 | 1011.2 |
| 20260509044808 | 8 | 357 | 0.0 | 0.0 | 0.00 | 0.00 | 0.00 | 94 | 1011.1 |
| 20260509044306 | 8 | 357 | 0.0 | 0.0 | 0.00 | 0.00 | 0.00 | 94 | 1010.9 |
| 20260509043802 | 8 | 357 | 0.0 | 1.6 | 0.00 | 0.00 | 0.00 | 94 | 1011.1 |
| 20260509043258 | 8 | 357 | 0.0 | 0.0 | 0.00 | 0.00 | 0.00 | 93 | 1010.8 |
| 20260509042754 | 8 | 357 | 0.0 | 0.0 | 0.00 | 0.00 | 0.00 | 93 | 1011.1 |
| 20260509042250 | 8 | 357 | 0.0 | 0.0 | 0.00 | 0.00 | 0.00 | 93 | 1011.2 |
| 20260509041747 | 8 | 357 | 0.0 | 0.0 | 0.00 | 0.00 | 0.00 | 93 | 1011.1 |
| 20260509041244 | 8 | 357 | 0.0 | 0.0 | 0.00 | 0.00 | 0.00 | 92 | 1011.2 |
| 20260509040743 | 8 | 357 | 0.0 | 0.0 | 0.00 | 0.00 | 0.00 | 93 | 1011.3 |
| 20260509040239 | 8 | 357 | 0.0 | 1.6 | 0.00 | 0.00 | 0.00 | 93 | 1011.3 |
| 20260509035736 | 8 | 357 | 0.0 | 0.0 | 0.00 | 0.13 | 0.13 | 92 | 1011.4 |
| 20260509035233 | 8 | 357 | 0.0 | 0.0 | 0.13 | 0.13 | 0.13 | 92 | 1011.5 |
| 20260509034730 | 8 | 357 | 0.0 | 0.0 | 0.13 | 0.13 | 0.13 | 92 | 1011.5 |
| 20260509034228 | 8 | 357 | 1.6 | 3.2 | 0.00 | 0.10 | 0.10 | 92 | 1011.5 |